Regional Weather Roundup
Issued by NWS Wakefield, VA

Home | Current Version | Previous Version | Text Only | Print | Product List | Glossary On
Versions: 1 2 3 4 5 6 7 8 9 10 11 12 13 14 15 16 17 18 19 20 21 22 23 24 25 26 27 28
000
ASUS41 KAKQ 170015
RWRAKQ

REGIONAL WEATHER ROUNDUP
NATIONAL WEATHER SERVICE WAKEFIELD VA
800 PM EDT WED AUG 16 2017

Note: "fair" indicates few or no clouds below 12,000 feet with no
significant weather and/or obstructions to visibility. * = Denotes
station may not report precipitation (e.g., rain,snow,etc.),
thunder or fog.

VAZ042-051-052>054-056-170100-
NORTHERN VIRGINIA

CITY           SKY/WX    TMP DP  RH WIND       PRES   REMARKS
WASH NATIONAL  MOCLDY    86  69  56 NE6       29.98R
DULLES         MOCLDY    77  73  87 SW5       29.99S
FORT BELVOIR   MOCLDY    79  73  80 CALM      29.98R
QUANTICO       MOCLDY    82  77  84 CALM      29.98S
FREDERICKSBRG* CLEAR     78  75  88 CALM      29.98R
STAFFORD*      PTCLDY    76  76 100 CALM      30.02S
WARRENTON      NOT AVBL
CULPEPER*      CLOUDY    79  74  86 CALM      30.00R
MANASSAS*      MOCLDY    83  70  64 NE8       30.00R
LEESBURG*      CLOUDY    81  73  78 CALM      30.01R
WINCHESTER     MOCLDY    77  68  73 CALM      30.02R
FRONT ROYAL*   PTCLDY    79  73  83 CALM      30.00R
LURAY*         CLOUDY    81  70  69 CALM      30.01S
$$

VAZ048-049-060>072-079>083-170100-
CENTRAL AND SOUTH CENTRAL VIRGINIA

CITY           SKY/WX    TMP DP  RH WIND       PRES   REMARKS
RICHMOND       MOCLDY    82  72  71 SE5       29.99R
CHESTERFIELD*  MOCLDY    82  74  76 SE3       30.00R
PETERSBURG*    CLEAR     79  73  79 CALM      30.00R
HANOVER        CLEAR     79  74  84 CALM      30.00R
TAPPAHANNOCK*  CLEAR     80  74  81 CALM      30.00R
QUINTON*       FAIR      80  79  96 CALM      29.98R
CHARLOTTSVILLE PTCLDY    84  71  65 E5        30.00R
GORDONSVILLE*  CLEAR     80  75  85 CALM      30.00R
ORANGE*        CLOUDY    79  70  73 CALM      30.00R
LOUISA*        CLEAR     77  73  88 CALM      30.00R
BUMPASS*       FAIR      78  75  90 CALM      30.00R
FARMVILLE*     CLEAR     83  67  59 S3        29.99R
CREWE*         FAIR      78  74  86 CALM      30.00R
FORT PICKETT*  FAIR     N/A N/A N/A CALM      30.01R
CHASE CITY*    FAIR      78  77  98 CALM      30.01S
CLARKSVILLE*   FAIR      79  73  83 E5        30.00R
SOUTH HILL*    MOCLDY    81  74  79 CALM      30.06S
LAWRENCEVILLE* FAIR      78  74  87 CALM      30.00S
EMPORIA*       CLEAR     81  72  74 CALM      30.01S
$$

VAZ088>098-170100-
SOUTHEAST VIRGINIA

CITY           SKY/WX    TMP DP  RH WIND       PRES   REMARKS
NORFOLK        CLEAR     81  74  79 E5        29.99S
VIRGINIA BEACH PTCLDY    76  71  85 SE3       29.99R
NORFOLK NAVAL  PTCLDY    78  71  79 CALM      30.01R
WEST POINT*    CLEAR     80  72  75 SE3       30.01R
SALUDA*        FAIR      79  71  75 S3        29.99S
NEWPORT NEWS   CLEAR     78  71  79 E3        30.00R
LANGLEY AFB    CLEAR     80  73  78 SE3       29.99S
FORT EUSTIS    NOT AVBL
WILLIAMSBURG*  CLEAR     81  73  78 CALM      30.00S
HR EXEC AP*    FAIR      73  68  83 CALM      29.97R
FRANKLIN*      CLEAR     80  73  77 CALM      30.00R
US460-WAKEFLD  CLEAR     78  75  90 CALM      29.99S
$$

VAZ020-022-025-037-045-170100-
WEST CENTRAL AND SOUTHWEST VIRGINIA

CITY           SKY/WX    TMP DP  RH WIND       PRES   REMARKS
STAUNTON*      CLEAR     78  70  74 CALM      30.05R
WAYNESBORO*    CLEAR     80  70  72 SE3       30.05R
HOT SPRINGS VA CLEAR     72  55  56 CALM      30.19S
LYNCHBURG      CLEAR     77  67  71 CALM      30.02R
DANVILLE       CLEAR     81  74  79 CALM      30.01R
SOUTH BOSTON*  FAIR      82  73  73 CALM      30.00S
MARTINSVILLE   CLOUDY    76  69  79 CALM      30.06R
ROANOKE        PTCLDY    85  67  54 S8        30.05R
BLACKSBURG     CLOUDY    78  68  70 W3        30.12R
DUBLIN*        LGT RAIN  74  69  85 W6        30.11R
MARION*        PTCLDY    75  66  72 CALM      30.15R
HILLSVILLE*    MOCLDY    71  67  87 CALM      30.13R
RICHLANDS*     CLOUDY    74  68  81 CALM      30.14R
WISE*          CLOUDY    72  72 100 S5        30.14F
ABINGDON*      CLOUDY    78  73  86 CALM      30.10R
$$

MDZ021>025-VAZ099-100-170100-
SOUTHERN MARYLAND AND THE DELMARVA PENINSULA

CITY           SKY/WX    TMP DP  RH WIND       PRES   REMARKS
PATUXENT RIVER PTCLDY    80  76  87 S5        29.98R
BAY BRIDGE APT PTCLDY    81  73  78 NE5       29.99R
LEONARDTOWN    PTCLDY    77  73  88 CALM      30.00S
DOVER          PTCLDY    81  81 100 NW3       29.97F
GEORGETOWN     CLEAR     78  72  81 SE3       30.00R
EASTON         LGT RAIN  77  73  88 SE7       30.04R
CAMBRIDGE      CLEAR     79  75  89 CALM      29.98S
SALISBURY      MOCLDY    78  73  84 NE3       29.99R
OCEAN CITY     CLOUDY    78  72  81 S5        30.01R
WALLOPS ISLAND CLEAR     76  74  93 S5        30.00S
ACCOMACK*      CLEAR     76  74  93 S3        30.00R
$$

NCZ012>017-030>032-170100-
NORTH CENTRAL AND EASTERN NORTH CAROLINA

CITY           SKY/WX    TMP DP  RH WIND       PRES   REMARKS
ROANOKE RAPIDS FAIR      79  77  94 CALM      30.00S
RALEIGH        PTCLDY    85  72  65 E6        30.01R
ELIZABETH CITY CLEAR     79  76  90 E6        30.01R
AHOSKIE*         N/A     78  75  90 CALM      30.00S
EDENTON*       CLEAR     81  76  83 CALM      30.00S
CURRITUCK*     PTCLDY    79  60  51 E3        30.01S
KILL DEVIL HLS CLEAR     77  73  88 CALM      29.99S
MANTEO         MOCLDY    78  74  87 E6        30.00S
CAPE HATTERAS  CLEAR     79  76  90 E5        30.00R
TARBORO*       NOT AVBL
GOLDSBORO      CLEAR     84  79  84 VRB3      29.98R HX  96
WASHINGTON     CLEAR     83  75  78 CALM      29.99R
GREENVILLE     CLEAR     82  73  74 CALM      30.01R
NEW BERN       CLEAR     83  78  85 CALM      30.00R
WILMINGTON     PTCLDY    81  76  84 SW3       30.00R
$$

VAZ048-170100-
ELSEWHERE

CITY           SKY/WX    TMP DP  RH WIND       PRES   REMARKS
HARRISBURG PA  PTCLDY    77  69  76 CALM      29.98S
BALTIMORE      PTCLDY    80  72  76 SE3       29.98R
ANNAPOLIS      CLEAR     83  73  72 CALM      29.99R
ANDREWS AFB    PTCLDY    81  68  65 E3        29.98R
PHILADELPHIA   PTCLDY    84  61  45 NW8       29.98R
GREENSBORO     MOCLDY    81  73  76 SW8       30.02R
ROCKY MOUNT    CLEAR     79  76  90 CALM      30.00R
$$

VAZ100-170100-
MARINE

STATION/POSITION TIME  TEMP    WIND        PRES    WAVE   SWELL
                       AIR SEA DIR/SP/G            HT/PER HT/PER
                 (UTC) (F)     (DEG/KT/KT) (MB)    (FT/S) (FT/S)
BRANDYWINE LGT   2348          190/ 10/ 11 1015.9R
CAPE MAY NJ      2348   77 78  190/  6/  7 1015.2R
LEWES DE         2348   79 79  180/  3/  6 1015.4R
15NM E FENWICK I 2250   78 78  160/  6/  8 1015.9    2/ 8   2/ 8
OCEAN-CITY-INLET 2348   78 78  200/  5/  7 1016.4R
WACHAPREAGUE VA  2348   79 85  190/  6/  7 1015.8R
THOMAS POINT MD  2300   83 80   70/  3/  4   N/A
GOOSES REEF MD   2350   83     180/  8/ 10 1015.9R
COVE POINT MD    2348   81     190/  9/ 11 1015.9R
SOLOMONS ISLAND  2348   82 82  150/  5/  6   N/A
BISHOPS HEAD MD  2348   82 87  200/  7/  8 1015.6R
PINEY POINT MD   2348          180/  9/ 10   N/A
POTOMAC MD       2350   82     180/  8/ 10 1014.6R
CAMBRIDGE MD     2348   83 84              1016.2R
LEWISETTA VA     2348   82 83  170/  5/  6 1015.2S
RAPPAHANNOCK LGT 2348          170/  8/  8 1016.3R
STINGRAY PT      2350   80     190/ 10/ 12 1015.8S
YORK RVR RNG VA  2348   79     160/  9/ 10 1016.0R
YORKTOWN VA      2348   81 81  150/  5/  6 1015.4R
JAMESTOWN VA     2350          150/  8/ 12   N/A
DOMINION TERM VA 2348   81      70/  5/  6 1015.8R
KIPTOPEKE VA     2348      79  160/  5/  6   N/A
CHES BAY BRIDGE  2348   78 75  140/  6/  9 1015.7R
CAPE HENRY VA    2348   77     150/  4/  7   N/A
WILLOUBY STN VA  2348           40/  2/  3 1015.7R
S CRANEY ISL VA  2348   83      80/  3/  4 1015.5R
CAPE HENRY BUOY  2330      78                N/A     2/ 8
1ST LANDING BUOY 2350   78                 1015.6R
64NM E OF VA BCH 2350   77 79   50/  4/  6 1016.4R   2/ 9   2/ 9
DUCK PIER NC     2348   78 79   80/  6/  7 1015.6F
44100 DUCK FRF   2305      79                N/A     2/ 7
44056 DUCK FRF   0000      79                N/A     2/ 7
OREGON INLET NC  2348           40/  7/  8 1015.8R
HATTERAS NC      2348   80 84   70/  7/ 10 1015.7R
DIAMOND SHLS NC  2350   80 83   30/ 12/ 14 1015.4R   3/ 8   2/ 8
CAPE LOOKOUT NC  2300   81      80/  8/  8 1014.9S
$$




USA.gov is the U.S. government's official web portal to all federal, state and local government web resources and services.